Location: The Jewett Observatory
(46.7288°N, 117.1525°W)
Time: 22:48:55
(UTC-07:00)

Cosmos 1633 - Visible Passes

Search period start: 18 September 2014 00:00
Search period end: 28 September 2014 00:00
Orbit: 494 x 521 km, 82.5° (Epoch: 18 September)

Date Brightness Start Highest point End Pass type
(mag) Time Alt. Az. Time Alt. Az. Time Alt. Az.
18 Sep 3.2 04:02:40 10° N 04:06:20 54° ENE 04:06:38 52° E visible
18 Sep 4.6 05:40:10 10° WNW 05:41:22 11° W 05:41:23 11° W visible
19 Sep 4.1 03:45:13 10° N 03:48:00 36° NE 03:48:00 36° NE visible
19 Sep 4.6 05:21:52 10° NW 05:22:46 13° WNW 05:22:46 13° WNW visible
20 Sep 5.0 03:27:48 10° N 03:29:35 22° NNE 03:29:35 22° NNE visible
20 Sep 4.9 05:03:52 10° NW 05:04:21 12° NW 05:04:21 12° NW visible
21 Sep 5.6 03:10:25 10° NNE 03:11:19 15° NNE 03:11:19 15° NNE visible
21 Sep 5.1 04:46:01 10° NW 04:46:06 11° NW 04:46:06 11° NW visible
22 Sep 6.0 02:53:05 10° NNE 02:53:10 10° NNE 02:53:10 10° NNE visible
